Weather History for KLUM - May, 2014

Change the Weather History Date:

Thursday, May 8, 2014

  Actual Average (KEAU) Record (KEAU)
Temperature  
Mean Temperature 62 °F 55 °F  
Max Temperature 73 °F 68 °F 88 °F (1936)
Min Temperature 51 °F 43 °F 28 °F (1954)
Degree Days  
Heating Degree Days 3 10  
Month to date heating degree days 90  
Since 1 July heating degree days 7731  
Cooling Degree Days 0 1  
Month to date cooling degree days 2  
Year to date cooling degree days 6  
Growing Degree Days 12 (Base 50)    
Moisture  
Dew Point 54 °F    
Average Humidity 82    
Maximum Humidity 99    
Minimum Humidity 51    
Precipitation  
Precipitation 1.05 in 0.10 in 1.49 in (1938)
Month to date precipitation 0.86  
Year to date precipitation 7.04  
Snow  
Snow 0.00 in 0.00 in 0.50 in (1907)
Month to date snowfall 0.1  
Since 1 July snowfall 46.9  
Snow Depth -    
Sea Level Pressure  
Sea Level Pressure 29.69 in    
Wind  
Wind Speed 9 mph (East)    
Max Wind Speed 29 mph    
Max Gust Speed 43 mph    
Visibility 7 miles    
Events Rain , Thunderstorm    
T = Trace of Precipitation, MM = Missing Value Source: NWS Daily Summary

Daily Weather History Graph

Daily Weather History Graph

Search for Another Location

Airport or City:

Trip Planner

Search our weather history database for the weather conditions in past years. The results will help you decide how hot, cold, wet, or windy it might be!

Date:

Astronomy

May. 08, 2014 Rise Set
Actual Time 5:47 AM CDT 8:21 PM CDT
Civil Twilight 5:14 AM CDT 8:54 PM CDT
Nautical Twilight 4:32 AM CDT 9:36 PM CDT
Astronomical Twilight 3:45 AM CDT 10:24 PM CDT
Moon 2:06 PM CDT (5/8) 2:35 AM CDT (5/8)
Length of Visible Light 15h 40m
Length of Day
14h 34m
Waxing Gibbous, 65% of the Moon is Illuminated
May 8
Waxing Gibbous
May 14
Full
May 21
Last Quarter
May 28
New
Jun 5
First Quarter

Hourly Weather History & Observations

Time (CDT) Temp. Dew Point Humidity Pressure Visibility Wind Dir Wind Speed Gust Speed Precip Events Conditions
12:15 AM 52.3 °F 46.8 °F 81% 29.75 in 7.0 mi East 11.5 mph - N/A Thunderstorm Overcast
12:35 AM 52.3 °F 47.1 °F 82% 29.76 in 7.0 mi East 10.4 mph - N/A Rain , Thunderstorm Light Thunderstorms and Rain
12:55 AM 51.8 °F 47.5 °F 85% 29.74 in 7.0 mi East 15.0 mph - N/A Rain , Thunderstorm Light Thunderstorms and Rain
1:15 AM 51.8 °F 48.2 °F 88% 29.80 in 7.0 mi NW 6.9 mph - N/A Thunderstorm Thunderstorm
1:35 AM 51.8 °F 48.2 °F 88% 29.78 in 7.0 mi NNE 11.5 mph - N/A Thunderstorm Overcast
1:55 AM 52.2 °F 48.0 °F 86% 29.77 in 7.0 mi NE 13.8 mph - N/A Thunderstorm Overcast
2:15 AM 53.4 °F 48.2 °F 82% 29.79 in 7.0 mi North 10.4 mph - N/A Thunderstorm Thunderstorm
2:35 AM 52.3 °F 47.7 °F 84% 29.76 in 7.0 mi NE 10.4 mph - N/A   Overcast
2:55 AM 52.3 °F 47.8 °F 85% 29.73 in 7.0 mi ENE 17.3 mph - N/A   Overcast
3:15 AM 52.7 °F 48.2 °F 85% 29.73 in 7.0 mi ENE 11.5 mph 17.3 mph N/A   Mostly Cloudy
3:35 AM 52.7 °F 48.2 °F 85% 29.73 in 7.0 mi East 11.5 mph - N/A   Overcast
3:55 AM 52.2 °F 48.2 °F 86% 29.72 in 7.0 mi East 11.5 mph - N/A   Scattered Clouds
4:15 AM 52.2 °F 48.2 °F 86% 29.70 in 7.0 mi East 18.4 mph 21.9 mph N/A   Scattered Clouds
4:35 AM 52.5 °F 48.4 °F 86% 29.73 in 7.0 mi East 6.9 mph - N/A   Scattered Clouds
4:55 AM 52.7 °F 48.4 °F 85% 29.73 in 7.0 mi East 9.2 mph - N/A   Clear
5:15 AM 52.7 °F 48.4 °F 85% 29.75 in 7.0 mi East 8.1 mph - N/A   Clear
5:35 AM 52.2 °F 48.4 °F 87% 29.77 in 7.0 mi SE 8.1 mph - N/A   Scattered Clouds
5:55 AM 51.8 °F 48.4 °F 88% 29.75 in 7.0 mi ESE 5.8 mph - N/A   Scattered Clouds
6:15 AM 52.0 °F 48.6 °F 88% 29.70 in 7.0 mi ENE 6.9 mph - N/A   Scattered Clouds
6:35 AM 52.2 °F 48.7 °F 88% 29.69 in 7.0 mi East 6.9 mph - N/A Rain Light Rain
6:55 AM 52.5 °F 49.5 °F 89% 29.74 in 5.0 mi SSE 5.8 mph - N/A   Scattered Clouds
7:15 AM 53.4 °F 49.5 °F 86% 29.76 in 7.0 mi South 6.9 mph - N/A   Scattered Clouds
7:35 AM 53.8 °F 49.5 °F 85% 29.75 in 5.0 mi ESE 6.9 mph - N/A   Haze
7:55 AM 53.6 °F 49.6 °F 86% 29.76 in 5.0 mi SE 4.6 mph - N/A   Clear
8:15 AM 54.0 °F 50.0 °F 86% 29.75 in 5.0 mi ESE 6.9 mph - N/A   Scattered Clouds
8:35 AM 54.7 °F 50.4 °F 85% 29.76 in 5.0 mi ESE 11.5 mph - N/A   Haze
8:55 AM 55.4 °F 50.2 °F 83% 29.78 in 5.0 mi SE 10.4 mph - N/A   Haze
9:15 AM 55.8 °F 50.0 °F 81% 29.79 in 5.0 mi SSE 4.6 mph - N/A   Haze
9:35 AM 56.8 °F 50.2 °F 78% 29.79 in 5.0 mi WNW 4.6 mph - N/A   Haze
9:55 AM 58.8 °F 50.9 °F 75% 29.75 in 5.0 mi East 9.2 mph - N/A   Haze
10:15 AM 59.2 °F 51.1 °F 74% 29.74 in 7.0 mi East 9.2 mph - N/A   Clear
10:35 AM 60.8 °F 51.6 °F 72% 29.73 in 7.0 mi East 11.5 mph - N/A   Scattered Clouds
10:55 AM 62.4 °F 52.0 °F 69% 29.73 in 7.0 mi East 9.2 mph - N/A   Scattered Clouds
11:15 AM 64.0 °F 52.3 °F 66% 29.72 in 7.0 mi East 10.4 mph - N/A   Clear
11:35 AM 63.5 °F 52.0 °F 66% 29.71 in 7.0 mi East 11.5 mph - N/A   Clear
11:55 AM 65.3 °F 52.0 °F 62% 29.71 in 10.0 mi ESE 11.5 mph 17.3 mph N/A   Clear
12:15 PM 66.2 °F 52.2 °F 61% 29.71 in 10.0 mi East 10.4 mph - N/A   Clear
12:35 PM 67.5 °F 53.1 °F 60% 29.71 in 7.0 mi East 9.2 mph - N/A   Clear
12:55 PM 69.6 °F 53.4 °F 56% 29.70 in 10.0 mi East 5.8 mph - N/A   Clear
1:15 PM 69.1 °F 53.2 °F 57% 29.70 in 10.0 mi East 3.5 mph - N/A   Clear
1:35 PM 70.3 °F 53.4 °F 55% 29.70 in 10.0 mi SE 5.8 mph - N/A   Clear
1:55 PM 70.0 °F 53.6 °F 56% 29.69 in 10.0 mi ESE 4.6 mph - N/A   Mostly Cloudy
2:15 PM 70.9 °F 53.6 °F 54% 29.68 in 10.0 mi East 3.5 mph - N/A   Overcast
2:35 PM 72.9 °F 54.7 °F 53% 29.67 in 10.0 mi East 9.2 mph - N/A   Mostly Cloudy
2:55 PM 73.6 °F 54.3 °F 51% 29.65 in 10.0 mi SE 15.0 mph 20.7 mph N/A   Scattered Clouds
3:15 PM 73.4 °F 55.0 °F 52% 29.62 in 10.0 mi ESE 12.7 mph - N/A   Mostly Cloudy
3:35 PM 73.0 °F 56.5 °F 56% 29.62 in 10.0 mi ESE 16.1 mph 20.7 mph N/A   Scattered Clouds
3:55 PM 72.5 °F 57.7 °F 60% 29.62 in 10.0 mi ESE 10.4 mph - N/A   Scattered Clouds
4:15 PM 71.4 °F 59.9 °F 67% 29.61 in 10.0 mi SE 12.7 mph 17.3 mph N/A Rain Light Rain
4:35 PM 69.8 °F 61.0 °F 73% 29.62 in 10.0 mi ESE 8.1 mph - 0.01 in Rain , Thunderstorm Light Thunderstorms and Rain
4:55 PM 68.4 °F 62.2 °F 81% 29.63 in 7.0 mi ESE 5.8 mph - 0.02 in Rain , Thunderstorm Thunderstorms and Rain
5:15 PM 63.7 °F 60.4 °F 89% 29.68 in 1.8 mi SW 28.8 mph 42.6 mph 0.36 in Rain , Thunderstorm Heavy Thunderstorms and Rain
5:35 PM 61.9 °F 61.0 °F 97% 29.66 in 4.0 mi South 6.9 mph - 0.76 in Rain , Thunderstorm Thunderstorms and Rain
5:55 PM 61.9 °F 61.2 °F 97% 29.64 in 7.0 mi SSW 3.5 mph - 0.78 in Rain Rain
6:15 PM 62.1 °F 61.5 °F 98% 29.63 in 5.0 mi ESE 4.6 mph - 0.03 in Rain Light Rain
6:35 PM 62.4 °F 61.7 °F 97% 29.63 in 10.0 mi SSE 4.6 mph - 0.04 in Rain Rain
6:55 PM 62.1 °F 61.7 °F 99% 29.62 in 10.0 mi Calm Calm - 0.06 in Rain , Thunderstorm Rain
7:15 PM 62.1 °F 61.7 °F 99% 29.61 in 10.0 mi Calm Calm - N/A Rain Light Rain
7:35 PM 62.6 °F 61.9 °F 97% 29.60 in 10.0 mi ENE 3.5 mph - N/A Rain Light Rain
7:55 PM 62.1 °F 61.7 °F 99% 29.59 in 10.0 mi East 10.4 mph - 0.01 in Rain , Thunderstorm Light Thunderstorms and Rain
8:15 PM 62.1 °F 61.7 °F 99% 29.58 in 3.0 mi WNW 17.3 mph - 0.10 in Rain , Thunderstorm Heavy Thunderstorms and Rain
8:35 PM 62.2 °F 61.9 °F 99% 29.59 in 7.0 mi Calm Calm - 0.18 in Rain , Thunderstorm Light Thunderstorms and Rain
8:55 PM 61.9 °F 61.7 °F 99% 29.60 in 10.0 mi North 4.6 mph - 0.18 in   Overcast
9:15 PM 61.9 °F 61.7 °F 99% 29.60 in 10.0 mi North 6.9 mph - N/A   Overcast
9:35 PM 61.7 °F 61.3 °F 99% 29.60 in 10.0 mi NNE 8.1 mph - N/A   Overcast
9:55 PM 61.5 °F 61.2 °F 99% 29.60 in 10.0 mi Calm Calm - N/A   Mostly Cloudy
10:15 PM 61.2 °F 60.8 °F 99% 29.59 in 10.0 mi Calm Calm - N/A   Scattered Clouds
10:35 PM 61.2 °F 60.8 °F 99% 29.58 in 10.0 mi Calm Calm - N/A   Clear
10:55 PM 60.6 °F 60.1 °F 98% 29.58 in 7.0 mi Calm Calm - N/A   Scattered Clouds
11:15 PM 60.3 °F 59.9 °F 99% 29.55 in 1.8 mi ENE 3.5 mph - N/A   Mostly Cloudy
11:35 PM 60.1 °F 59.7 °F 99% 29.56 in 1.2 mi Calm Calm - N/A   Scattered Clouds
11:55 PM 60.8 °F 60.4 °F 99% 29.55 in 5.0 mi ESE 5.8 mph - N/A   Clear